User: anonymous   Login
Location: Newark
(51.3318°N, 0.0053°E)
Time: 13:23:47
(UTC+00:00)
Language:

NOAA 15 - Orbit

View from above orbital plane
View from above orbital plane
View from above satellite
View from above satellite

Ground track
Ground track

The orbit data is extracted from the following two-line orbital elements,

1 25338U 98030A   22177.11959958  .00000179  00000-0  93262-4 0  9990
2 25338  98.6430 206.5417 0009146 272.5523  87.4610 14.26142973254505
Epoch (UTC): 26 June 2022 02:52:13
Eccentricity: 0.0009146
inclination: 98.6430°
perigee height: 798 km
apogee height: 811 km
right ascension of ascending node: 206.5417°
argument of perigee: 272.5523°
revolutions per day: 14.26142973
mean anomaly at epoch: 87.4610°
orbit number at epoch: 25450

The dashed part of the orbit path shows where the satellite is in the earth's shadow,  

DLR